[Iaude] MPEC C73: 2024 CE1 [a=2.68,e=0.62,i=8.5,H=25.6]
    mpec at cfa.harvard.edu 
    mpec at cfa.harvard.edu
       
    Wed Feb  7 05:38:08 EST 2024
    
    
  
M.P.E.C. 2024-C73                              Issued 2024 February 7, 10:36 UT
     The Minor Planet Electronic Circulars contain information on unusual
         minor planets, routine data on comets and natural satellites,
         and occasional editorial announcements.  They are published
    on behalf of Division F of the International Astronomical Union by the
          Minor Planet Center, Smithsonian Astrophysical Observatory,
                          Cambridge, MA 02138, U.S.A.
			  
             Prepared using the Tamkin Foundation Computer Network
                              MPC at CFA.HARVARD.EDU
            URL https://www.minorplanetcenter.net/    ISSN 1523-6714
                                    2024 CE1                                    
Observations:
     K24C01E* C2024 02 05.17501507 29 03.728+72 10 14.56         21.57GVEC073V00
     K24C01E  C2024 02 05.18061707 29 13.405+72 10 17.22         21.14GVEC073V00
     K24C01E  C2024 02 05.18620607 29 23.082+72 10 19.99         21.64GVEC073V00
     K24C01E  C2024 02 05.19179007 29 32.766+72 10 22.48         21.63GVEC073V00
     K24C01E  C2024 02 05.23773507 30 49.850+72 10 32.45         21.2 GVEC073H01
     K24C01E  C2024 02 05.24246407 30 58.019+72 10 32.96         21.1 GVEC073H01
     K24C01E  C2024 02 05.25153707 31 13.733+72 10 33.42         20.9 GVEC073H01
     K24C01E  C2024 02 05.25875807 31 26.268+72 10 33.56         20.9 GVEC073H01
     K24C01E 1C2024 02 05.82188 07 50 22.74 +72 06 57.3          20.7 VXEC073033
     K24C01E 1C2024 02 05.82360 07 50 26.16 +72 06 56.8          20.6 VXEC073033
     K24C01E 1C2024 02 05.82533 07 50 29.54 +72 06 56.5          20.8 VXEC073033
     K24C01E 7C2024 02 06.96332008 32 44.850+71 34 34.11         20.9 GVEC073Z84
     K24C01E 7C2024 02 06.96699808 32 52.929+71 34 23.04         21.7 GVEC073Z84
     K24C01E 7C2024 02 06.97098908 33 01.619+71 34 11.52         21.4 GVEC073Z84
Observer details:
033 Karl Schwarzschild Observatory, Tautenburg.  Observers S. Melnikov, C.
    Hogner, F. Ludwig, M. Hartmann, B. Stecklum.  Measurer B. Stecklum.
    1.34-m f/3 Schmidt + CCD.
H01 Magdalena Ridge Observatory, Socorro.  Observers W. H. Ryan, E. V. Ryan.
    Measurer W. H. Ryan.  2.4-m f/8.9 Ritchey-Chretien + CCD.
V00 Kitt Peak-Bok.  Observer K. W. Wierzchos.  Measurers M. J. Brucker, C. E.
    Woodward, D. Fay, J. B. Fazekas, D. C. Fuls, A. R. Gibbs, H. Groeller, J.
    K. Hogan, R. A. Kowalski, S. M. Larson, C. Lejoly, G. J. Leonard, R. A.
    Mastaler, R. S. McMillan, D. Rankin, R. L. Seaman, A. Serrano, F. C.
    Shelly, K. W. Wierzchos.  2.25-m reflector + 4x4K mosaic CCD.
Z84 Calar Alto-Schmidt.  Observers F. Ocana, R. Kresken, M. Micheli, L.
    Conversi.  Measurers F. Ocana, M. Micheli.  0.8-m f/3 Schmidt + CCD.
Orbital elements:
2024 CE1                                                 Earth MOID = 0.0191 AU
Epoch 2023 Sept. 13.0 TT = JDT 2460200.5                MPC                     
M 325.07820              (2000.0)            P               Q                  
n   0.22406695     Peri.  175.66305     -0.84128755     -0.53600578             
a   2.6846284      Node   331.57155     +0.49143609     -0.70418249             
e   0.6243862      Incl.    8.48412     +0.22522395     -0.46564452             
P   4.40           H   25.60          G   0.15           U   8                  
Residuals in seconds of arc
240205 V00  0.2-  0.0     240205 H01  0.0   0.1+    240205 033  0.1-  0.3+
240205 V00  0.1-  0.1-    240205 H01  0.1-  0.0     240206 Z84  0.2+  0.3+
240205 V00  0.0   0.0     240205 H01  0.1-  0.1+    240206 Z84  0.1+  0.2-
240205 V00  0.3+  0.0     240205 033  0.1-  0.2-    240206 Z84  0.3-  0.1-
240205 H01  0.1+  0.0     240205 033  0.0   0.0
Ephemeris:
2024 CE1                 a,e,i = 2.68, 0.62, 8                   q = 1.0084
Date    TT    R. A. (2000) Decl.     Delta      r    Elong.  Phase     V
2024 01 08    04 47 05.3 +61 06 43   0.2028  1.1333   133.8    38.8    24.0
...
2024 01 23    04 55 47.5 +65 55 11   0.1247  1.0582   123.5    50.8    23.1
...
2024 01 31    05 45 13.2 +69 51 28   0.08442 1.0308   120.7    55.2    22.3
...
2024 02 06    07 56 23.4 +72 03 49   0.05561 1.0171   122.7    54.7    21.4
2024 02 07    08 34 06.3 +71 31 10   0.05113 1.0154   123.7    53.9    21.1
2024 02 08    09 15 06.2 +70 17 07   0.04681 1.0139   125.0    52.8    20.9
...
2024 02 14    12 29 37.9 +37 04 27   0.02889 1.0086   136.7    42.1    19.6
...
2024 02 22    13 51 55.3 -22 50 59   0.04671 1.0117   117.9    59.8    21.1
...
2024 03 08    14 25 07.0 -44 31 44   0.1181  1.0475   114.7    59.4    23.2
A. U. Tomatic                (C) Copyright 2024 MPC           M.P.E.C. 2024-C73
    
    
More information about the Iaude
mailing list